| time (UTC) | temp F | wind direction | speed MPH | gust MPH | rain 1hr in | rain 24hr in | rain mn in | humidity % | barometer mb |
| 20260506135008 | 78 | 142 | 1.0 | 7.0 | 0.00 | 0.00 | 0.00 | 56 | 1017.0 |
| 20260506134510 | 78 | 36 | 0.0 | 7.0 | 0.00 | 0.00 | 0.00 | 59 | 1016.8 |
| 20260506134005 | 78 | 218 | 0.0 | 4.0 | 0.00 | 0.00 | 0.00 | 60 | 1016.9 |
| 20260506133504 | 77 | 117 | 1.0 | 4.0 | 0.00 | 0.00 | 0.00 | 60 | 1016.8 |
| 20260506133013 | 77 | 183 | 0.0 | 3.0 | 0.00 | 0.00 | 0.00 | 60 | 1016.8 |
| 20260506132504 | 77 | 227 | 0.0 | 3.0 | 0.00 | 0.00 | 0.00 | 63 | 1016.8 |
| 20260506132013 | 76 | 175 | 0.0 | 2.0 | 0.00 | 0.00 | 0.00 | 64 | 1016.9 |
| 20260506131513 | 76 | 192 | 0.0 | 2.0 | 0.00 | 0.00 | 0.00 | 66 | 1016.8 |
| 20260506131004 | 75 | 190 | 0.0 | 4.0 | 0.00 | 0.00 | 0.00 | 68 | 1016.7 |
| 20260506130504 | 74 | 240 | 1.0 | 4.0 | 0.00 | 0.00 | 0.00 | 68 | 1016.7 |
| 20260506130010 | 74 | 19 | 0.0 | 3.0 | 0.00 | 0.00 | 0.00 | 71 | 1016.7 |
| 20260506125503 | 73 | 140 | 1.0 | 3.0 | 0.00 | 0.00 | 0.00 | 71 | 1016.6 |
| 20260506125004 | 72 | 153 | 0.0 | 2.0 | 0.00 | 0.00 | 0.00 | 75 | 1016.5 |
| 20260506124510 | 71 | 153 | 0.0 | 2.0 | 0.00 | 0.00 | 0.00 | 76 | 1016.6 |
| 20260506124004 | 70 | 82 | 0.0 | 2.0 | 0.00 | 0.00 | 0.00 | 79 | 1016.5 |
| 20260506123505 | 69 | 210 | 0.0 | 2.0 | 0.00 | 0.00 | 0.00 | 81 | 1016.5 |
| 20260506123014 | 69 | 201 | 0.0 | 3.0 | 0.00 | 0.00 | 0.00 | 82 | 1016.5 |
| 20260506122505 | 68 | 210 | 0.0 | 3.0 | 0.00 | 0.00 | 0.00 | 84 | 1016.6 |
| 20260506122008 | 67 | 217 | 0.0 | 2.0 | 0.00 | 0.00 | 0.00 | 86 | 1016.6 |
| 20260506121515 | 67 | 182 | 0.0 | 2.0 | 0.00 | 0.00 | 0.00 | 87 | 1016.7 |
| 20260506121005 | 66 | 279 | 0.0 | 2.0 | 0.00 | 0.00 | 0.00 | 89 | 1016.6 |
| 20260506120505 | 66 | 187 | 0.0 | 1.0 | 0.00 | 0.00 | 0.00 | 91 | 1016.6 |
| 20260506120017 | 65 | 111 | 0.0 | 1.0 | 0.00 | 0.00 | 0.00 | 92 | 1016.5 |
| 20260506115504 | 65 | 148 | 0.0 | 0.0 | 0.00 | 0.00 | 0.00 | 92 | 1016.5 |
| 20260506115008 | 64 | 144 | 0.0 | 0.0 | 0.00 | 0.00 | 0.00 | 92 | 1016.5 |
| 20260506114513 | 63 | 144 | 0.0 | 0.0 | 0.00 | 0.00 | 0.00 | 92 | 1016.4 |
| 20260506114005 | 62 | 144 | 0.0 | 0.0 | 0.00 | 0.00 | 0.00 | 91 | 1016.3 |
| 20260506113504 | 62 | 144 | 0.0 | 0.0 | 0.00 | 0.00 | 0.00 | 91 | 1016.2 |
| 20260506113011 | 62 | 144 | 0.0 | 0.0 | 0.00 | 0.00 | 0.00 | 91 | 1016.3 |
| 20260506112508 | 61 | 144 | 0.0 | 0.0 | 0.00 | 0.00 | 0.00 | 90 | 1016.1 |
| 20260506112008 | 61 | 144 | 0.0 | 0.0 | 0.00 | 0.00 | 0.00 | 90 | 1016.0 |
| 20260506111515 | 61 | 144 | 0.0 | 0.0 | 0.00 | 0.00 | 0.00 | 90 | 1016.0 |
| 20260506111007 | 61 | 144 | 0.0 | 0.0 | 0.00 | 0.00 | 0.00 | 90 | 1016.1 |
| 20260506110507 | 61 | 144 | 0.0 | 0.0 | 0.00 | 0.00 | 0.00 | 90 | 1016.1 |
| 20260506110021 | 60 | 144 | 0.0 | 0.0 | 0.00 | 0.00 | 0.00 | 90 | 1016.0 |
| 20260506105507 | 60 | 144 | 0.0 | 0.0 | 0.00 | 0.00 | 0.00 | 89 | 1016.0 |
| 20260506105006 | 60 | 144 | 0.0 | 0.0 | 0.00 | 0.00 | 0.00 | 89 | 1016.0 |
| 20260506104516 | 60 | 144 | 0.0 | 0.0 | 0.00 | 0.00 | 0.00 | 89 | 1016.0 |
| 20260506104007 | 60 | 144 | 0.0 | 0.0 | 0.00 | 0.00 | 0.00 | 89 | 1016.0 |
| 20260506103504 | 60 | 144 | 0.0 | 0.0 | 0.00 | 0.00 | 0.00 | 89 | 1015.8 |
| 20260506103023 | 60 | 144 | 0.0 | 0.0 | 0.00 | 0.00 | 0.00 | 88 | 1015.8 |
| 20260506102507 | 60 | 144 | 0.0 | 0.0 | 0.00 | 0.00 | 0.00 | 88 | 1015.8 |
| 20260506102007 | 60 | 144 | 0.0 | 0.0 | 0.00 | 0.00 | 0.00 | 88 | 1015.8 |
| 20260506101515 | 60 | 144 | 0.0 | 0.0 | 0.00 | 0.00 | 0.00 | 88 | 1015.8 |
| 20260506101008 | 60 | 144 | 0.0 | 0.0 | 0.00 | 0.00 | 0.00 | 88 | 1015.8 |
| 20260506100507 | 60 | 144 | 0.0 | 0.0 | 0.00 | 0.00 | 0.00 | 89 | 1015.9 |
| 20260506100022 | 60 | 144 | 0.0 | 0.0 | 0.00 | 0.00 | 0.00 | 88 | 1015.8 |
| 20260506095507 | 60 | 144 | 0.0 | 0.0 | 0.00 | 0.00 | 0.00 | 88 | 1015.8 |
| 20260506095008 | 60 | 144 | 0.0 | 0.0 | 0.00 | 0.00 | 0.00 | 88 | 1015.6 |
| 20260506094530 | 60 | 144 | 0.0 | 0.0 | 0.00 | 0.00 | 0.00 | 88 | 1015.7 |
| 20260506094009 | 60 | 144 | 0.0 | 0.0 | 0.00 | 0.00 | 0.00 | 88 | 1015.7 |
| 20260506093508 | 60 | 144 | 0.0 | 0.0 | 0.00 | 0.00 | 0.00 | 88 | 1015.7 |
| 20260506093039 | 61 | 144 | 0.0 | 0.0 | 0.00 | 0.00 | 0.00 | 88 | 1015.8 |
| 20260506092504 | 61 | 144 | 0.0 | 0.0 | 0.00 | 0.00 | 0.00 | 88 | 1015.8 |
| 20260506092004 | 61 | 144 | 0.0 | 0.0 | 0.00 | 0.00 | 0.00 | 88 | 1015.8 |
| 20260506091512 | 61 | 144 | 0.0 | 0.0 | 0.00 | 0.00 | 0.00 | 87 | 1015.8 |
| 20260506091005 | 61 | 144 | 0.0 | 0.0 | 0.00 | 0.00 | 0.00 | 88 | 1015.8 |
| 20260506090505 | 61 | 144 | 0.0 | 0.0 | 0.00 | 0.00 | 0.00 | 87 | 1015.9 |
| 20260506090017 | 61 | 144 | 0.0 | 0.0 | 0.00 | 0.00 | 0.00 | 87 | 1015.7 |
| 20260506085505 | 61 | 144 | 0.0 | 0.0 | 0.00 | 0.00 | 0.00 | 87 | 1015.8 |
| 20260506085006 | 61 | 144 | 0.0 | 0.0 | 0.00 | 0.00 | 0.00 | 87 | 1015.8 |
| 20260506084525 | 61 | 144 | 0.0 | 0.0 | 0.00 | 0.00 | 0.00 | 87 | 1016.0 |
| 20260506084009 | 61 | 144 | 0.0 | 0.0 | 0.00 | 0.00 | 0.00 | 87 | 1016.0 |
| 20260506083508 | 61 | 144 | 0.0 | 0.0 | 0.00 | 0.00 | 0.00 | 87 | 1016.0 |
| 20260506083023 | 61 | 144 | 0.0 | 0.0 | 0.00 | 0.00 | 0.00 | 87 | 1016.0 |
| 20260506082513 | 61 | 144 | 0.0 | 0.0 | 0.00 | 0.00 | 0.00 | 87 | 1015.9 |
| 20260506082007 | 61 | 144 | 0.0 | 0.0 | 0.00 | 0.00 | 0.00 | 87 | 1016.0 |
| 20260506081522 | 61 | 144 | 0.0 | 0.0 | 0.00 | 0.00 | 0.00 | 87 | 1015.9 |
| 20260506081005 | 61 | 144 | 0.0 | 0.0 | 0.00 | 0.00 | 0.00 | 86 | 1015.8 |
| 20260506080505 | 61 | 144 | 0.0 | 0.0 | 0.00 | 0.00 | 0.00 | 86 | 1015.8 |
| 20260506073503 | 62 | 144 | 0.0 | 0.0 | 0.00 | 0.00 | 0.00 | 86 | 1015.6 |
| 20260506073004 | 62 | 144 | 0.0 | 0.0 | 0.00 | 0.00 | 0.00 | 86 | 1015.7 |
| 20260506072504 | 62 | 144 | 0.0 | 0.0 | 0.00 | 0.00 | 0.00 | 86 | 1015.7 |
| 20260506072004 | 62 | 144 | 0.0 | 0.0 | 0.00 | 0.00 | 0.00 | 86 | 1015.7 |
| 20260506071507 | 62 | 144 | 0.0 | 0.0 | 0.00 | 0.00 | 0.00 | 86 | 1015.7 |
| 20260506071005 | 62 | 144 | 0.0 | 0.0 | 0.00 | 0.00 | 0.00 | 86 | 1015.6 |
| 20260506070506 | 62 | 144 | 0.0 | 0.0 | 0.00 | 0.00 | 0.00 | 86 | 1015.7 |
| 20260506062505 | 61 | 144 | 0.0 | 0.0 | 0.00 | 0.00 | 0.00 | 84 | 1016.1 |
| 20260506062004 | 61 | 144 | 0.0 | 0.0 | 0.00 | 0.00 | 0.00 | 85 | 1016.0 |
| 20260506061504 | 61 | 144 | 0.0 | 0.0 | 0.00 | 0.00 | 0.00 | 85 | 1015.9 |
| 20260506061007 | 61 | 144 | 0.0 | 0.0 | 0.00 | 0.00 | 0.00 | 85 | 1015.9 |
| 20260506060504 | 61 | 144 | 0.0 | 0.0 | 0.00 | 0.00 | 0.00 | 85 | 1016.0 |
| 20260506051003 | 62 | 144 | 0.0 | 0.0 | 0.00 | 0.00 | 0.00 | 81 | 1016.5 |
| 20260506050504 | 62 | 144 | 0.0 | 0.0 | 0.00 | 0.00 | 0.00 | 81 | 1016.5 |
| 20260506045004 | 62 | 144 | 0.0 | 0.0 | 0.00 | 0.00 | 0.00 | 80 | 1016.7 |
| 20260506044518 | 62 | 144 | 0.0 | 0.0 | 0.00 | 0.00 | 0.00 | 79 | 1016.7 |
| 20260506044006 | 62 | 144 | 0.0 | 0.0 | 0.00 | 0.00 | 0.00 | 79 | 1016.8 |
| 20260506043510 | 63 | 144 | 0.0 | 0.0 | 0.00 | 0.00 | 0.00 | 79 | 1017.0 |
| 20260506043018 | 63 | 144 | 0.0 | 0.0 | 0.00 | 0.00 | 0.00 | 79 | 1016.8 |
| 20260506042508 | 63 | 144 | 0.0 | 0.0 | 0.00 | 0.00 | 0.00 | 79 | 1016.9 |
| 20260506042008 | 63 | 144 | 0.0 | 0.0 | 0.00 | 0.00 | 0.00 | 79 | 1017.0 |
| 20260506041524 | 63 | 144 | 0.0 | 0.0 | 0.00 | 0.00 | 0.00 | 79 | 1017.0 |
| 20260506041008 | 63 | 144 | 0.0 | 0.0 | 0.00 | 0.00 | 0.00 | 78 | 1016.8 |
| 20260506040503 | 63 | 144 | 0.0 | 0.0 | 0.00 | 0.00 | 0.00 | 78 | 1016.8 |
| 20260506040006 | 63 | 144 | 0.0 | 0.0 | 0.00 | 0.00 | 0.00 | 78 | 1016.9 |
| 20260506035504 | 63 | 144 | 0.0 | 0.0 | 0.00 | 0.00 | 0.00 | 78 | 1016.8 |
| 20260506035004 | 63 | 144 | 0.0 | 0.0 | 0.00 | 0.00 | 0.00 | 77 | 1016.8 |
| 20260506034510 | 63 | 144 | 0.0 | 0.0 | 0.00 | 0.00 | 0.00 | 77 | 1016.8 |
| 20260506034006 | 63 | 144 | 0.0 | 0.0 | 0.00 | 0.00 | 0.00 | 77 | 1016.7 |
| 20260506033503 | 63 | 144 | 0.0 | 0.0 | 0.00 | 0.00 | 0.00 | 77 | 1016.7 |
| 20260506033017 | 63 | 144 | 0.0 | 0.0 | 0.00 | 0.00 | 0.00 | 77 | 1016.6 |
| 20260506032504 | 63 | 144 | 0.0 | 0.0 | 0.00 | 0.00 | 0.00 | 77 | 1016.7 |
| 20260506032009 | 63 | 144 | 0.0 | 0.0 | 0.00 | 0.00 | 0.00 | 76 | 1016.7 |
| 20260506031521 | 63 | 144 | 0.0 | 0.0 | 0.00 | 0.00 | 0.00 | 76 | 1016.7 |
| 20260506031008 | 63 | 144 | 0.0 | 0.0 | 0.00 | 0.00 | 0.00 | 76 | 1016.7 |
| 20260506030510 | 63 | 144 | 0.0 | 0.0 | 0.00 | 0.00 | 0.00 | 76 | 1016.7 |
| 20260506030022 | 63 | 144 | 0.0 | 0.0 | 0.00 | 0.00 | 0.00 | 75 | 1016.9 |
| 20260506025513 | 63 | 144 | 0.0 | 0.0 | 0.00 | 0.00 | 0.00 | 75 | 1016.7 |
| 20260506025004 | 63 | 144 | 0.0 | 0.0 | 0.00 | 0.00 | 0.00 | 75 | 1016.8 |
| 20260506024508 | 63 | 144 | 0.0 | 0.0 | 0.00 | 0.00 | 0.00 | 75 | 1016.9 |
| 20260506024006 | 63 | 144 | 0.0 | 0.0 | 0.00 | 0.00 | 0.00 | 74 | 1016.9 |
| 20260506023508 | 63 | 144 | 0.0 | 0.0 | 0.00 | 0.00 | 0.00 | 74 | 1017.1 |
| 20260506023011 | 64 | 144 | 0.0 | 0.0 | 0.00 | 0.00 | 0.00 | 74 | 1017.1 |
| 20260506022508 | 64 | 144 | 0.0 | 0.0 | 0.00 | 0.00 | 0.00 | 74 | 1017.1 |
| 20260506022004 | 64 | 144 | 0.0 | 0.0 | 0.00 | 0.00 | 0.00 | 73 | 1017.1 |
| 20260506021518 | 64 | 144 | 0.0 | 0.0 | 0.00 | 0.00 | 0.00 | 73 | 1017.1 |
| 20260506021008 | 64 | 144 | 0.0 | 0.0 | 0.00 | 0.00 | 0.00 | 73 | 1017.0 |
| 20260506020508 | 64 | 144 | 0.0 | 0.0 | 0.00 | 0.00 | 0.00 | 73 | 1017.0 |
| 20260506020022 | 64 | 144 | 0.0 | 0.0 | 0.00 | 0.00 | 0.00 | 73 | 1017.1 |
| 20260506015508 | 64 | 144 | 0.0 | 0.0 | 0.00 | 0.00 | 0.00 | 73 | 1016.9 |
| 20260506015009 | 64 | 144 | 0.0 | 0.0 | 0.00 | 0.00 | 0.00 | 73 | 1016.8 |
| 20260506014526 | 64 | 144 | 0.0 | 0.0 | 0.00 | 0.00 | 0.00 | 73 | 1016.7 |
| 20260506014010 | 64 | 144 | 0.0 | 0.0 | 0.00 | 0.00 | 0.00 | 73 | 1016.5 |
| 20260506013504 | 64 | 144 | 0.0 | 1.0 | 0.00 | 0.00 | 0.00 | 73 | 1016.5 |
| 20260506013011 | 65 | 144 | 0.0 | 1.0 | 0.00 | 0.00 | 0.00 | 73 | 1016.7 |
| 20260506012504 | 65 | 144 | 0.0 | 0.0 | 0.00 | 0.00 | 0.00 | 73 | 1016.6 |
| 20260506012006 | 65 | 144 | 0.0 | 0.0 | 0.00 | 0.00 | 0.00 | 72 | 1016.6 |
| 20260506011517 | 65 | 144 | 0.0 | 0.0 | 0.00 | 0.00 | 0.00 | 71 | 1016.6 |
| 20260506011004 | 65 | 144 | 0.0 | 1.0 | 0.00 | 0.00 | 0.00 | 71 | 1016.9 |
| 20260506010504 | 66 | 144 | 0.0 | 1.0 | 0.00 | 0.00 | 0.00 | 71 | 1017.0 |
| 20260506010019 | 66 | 144 | 0.0 | 1.0 | 0.00 | 0.00 | 0.00 | 71 | 1016.7 |
| 20260506005509 | 67 | 144 | 0.0 | 0.0 | 0.00 | 0.00 | 0.00 | 70 | 1016.4 |
| 20260506005007 | 67 | 144 | 0.0 | 0.0 | 0.00 | 0.00 | 0.00 | 70 | 1016.3 |
| 20260506004524 | 67 | 144 | 0.0 | 0.0 | 0.00 | 0.00 | 0.00 | 69 | 1016.3 |
| 20260506004010 | 68 | 144 | 0.0 | 0.0 | 0.00 | 0.00 | 0.00 | 69 | 1016.5 |
| 20260506003509 | 68 | 144 | 0.0 | 0.0 | 0.00 | 0.00 | 0.00 | 68 | 1016.6 |
| 20260506003026 | 68 | 144 | 0.0 | 0.0 | 0.00 | 0.00 | 0.00 | 68 | 1016.5 |
| 20260506002509 | 68 | 144 | 0.0 | 0.0 | 0.00 | 0.00 | 0.00 | 67 | 1016.6 |
| 20260506002012 | 69 | 144 | 0.0 | 1.0 | 0.00 | 0.00 | 0.00 | 67 | 1016.6 |
| 20260506001515 | 69 | 144 | 0.0 | 1.0 | 0.00 | 0.00 | 0.00 | 66 | 1016.8 |
| 20260506001004 | 69 | 144 | 0.0 | 2.0 | 0.00 | 0.00 | 0.00 | 66 | 1016.7 |
| 20260506000504 | 69 | 142 | 0.0 | 2.0 | 0.00 | 0.00 | 0.00 | 66 | 1016.6 |
| 20260506000015 | 69 | 163 | 0.0 | 1.0 | 0.00 | 0.00 | 0.00 | 66 | 1016.6 |
| 20260505235506 | 70 | 163 | 0.0 | 1.0 | 0.00 | 0.00 | 0.00 | 65 | 1016.6 |
| 20260505235009 | 70 | 161 | 0.0 | 2.0 | 0.00 | 0.00 | 0.00 | 64 | 1016.6 |
| 20260505234546 | 70 | 145 | 0.0 | 2.0 | 0.00 | 0.00 | 0.00 | 64 | 1016.5 |
| 20260505234007 | 70 | 145 | 0.0 | 2.0 | 0.00 | 0.00 | 0.00 | 64 | 1016.4 |
| 20260505233510 | 70 | 140 | 0.0 | 2.0 | 0.00 | 0.00 | 0.00 | 62 | 1016.4 |
| 20260505233022 | 71 | 155 | 0.0 | 2.0 | 0.00 | 0.00 | 0.00 | 60 | 1016.4 |
| 20260505232511 | 71 | 143 | 0.0 | 1.0 | 0.00 | 0.00 | 0.00 | 62 | 1016.3 |
| 20260505232011 | 71 | 144 | 0.0 | 2.0 | 0.00 | 0.00 | 0.00 | 61 | 1016.3 |
| 20260505231524 | 71 | 144 | 0.0 | 2.0 | 0.00 | 0.00 | 0.00 | 61 | 1016.4 |
| 20260505231008 | 71 | 146 | 0.0 | 2.0 | 0.00 | 0.00 | 0.00 | 61 | 1016.5 |
| 20260505230513 | 72 | 157 | 0.0 | 2.0 | 0.00 | 0.00 | 0.00 | 60 | 1016.4 |
| 20260505230014 | 72 | 160 | 0.0 | 2.0 | 0.00 | 0.00 | 0.00 | 60 | 1016.5 |
| 20260505225507 | 72 | 155 | 0.0 | 3.0 | 0.00 | 0.00 | 0.00 | 60 | 1016.6 |
| 20260505225007 | 72 | 144 | 0.0 | 3.0 | 0.00 | 0.00 | 0.00 | 60 | 1016.6 |
| 20260505224527 | 72 | 194 | 0.0 | 2.0 | 0.00 | 0.00 | 0.00 | 60 | 1016.5 |
| 20260505224007 | 73 | 229 | 0.0 | 1.0 | 0.00 | 0.00 | 0.00 | 60 | 1016.5 |
| 20260505223508 | 73 | 165 | 0.0 | 2.0 | 0.00 | 0.00 | 0.00 | 58 | 1016.7 |
| 20260505223022 | 73 | 211 | 0.0 | 2.0 | 0.00 | 0.00 | 0.00 | 58 | 1016.7 |
| 20260505222510 | 73 | 210 | 0.0 | 2.0 | 0.00 | 0.00 | 0.00 | 58 | 1016.7 |
| 20260505222010 | 73 | 111 | 0.0 | 2.0 | 0.00 | 0.00 | 0.00 | 58 | 1016.7 |
| 20260505221528 | 73 | 181 | 0.0 | 2.0 | 0.00 | 0.00 | 0.00 | 58 | 1016.7 |
| 20260505221009 | 74 | 218 | 0.0 | 2.0 | 0.00 | 0.00 | 0.00 | 58 | 1016.7 |
| 20260505220510 | 74 | 109 | 0.0 | 2.0 | 0.00 | 0.00 | 0.00 | 58 | 1016.8 |
| 20260505220027 | 74 | 139 | 0.0 | 3.0 | 0.00 | 0.00 | 0.00 | 58 | 1016.8 |
| 20260505215508 | 74 | 186 | 0.0 | 4.0 | 0.00 | 0.00 | 0.00 | 58 | 1016.9 |
| 20260505215007 | 74 | 142 | 0.0 | 4.0 | 0.00 | 0.00 | 0.00 | 59 | 1016.9 |
| 20260505214520 | 74 | 136 | 0.0 | 3.0 | 0.00 | 0.00 | 0.00 | 59 | 1016.8 |
| 20260505214007 | 75 | 171 | 0.0 | 3.0 | 0.00 | 0.00 | 0.00 | 59 | 1017.0 |
| 20260505213507 | 75 | 190 | 0.0 | 3.0 | 0.00 | 0.00 | 0.00 | 59 | 1017.2 |
| 20260505213021 | 75 | 219 | 0.0 | 3.0 | 0.00 | 0.00 | 0.00 | 57 | 1017.2 |
| 20260505212512 | 76 | 290 | 0.0 | 4.0 | 0.00 | 0.00 | 0.00 | 57 | 1017.1 |
| 20260505212012 | 76 | 202 | 1.0 | 4.0 | 0.00 | 0.00 | 0.00 | 56 | 1017.1 |
| 20260505211524 | 77 | 226 | 0.0 | 2.0 | 0.00 | 0.00 | 0.00 | 56 | 1017.0 |
| 20260505211007 | 77 | 194 | 0.0 | 2.0 | 0.00 | 0.00 | 0.00 | 55 | 1017.0 |
| 20260505210505 | 77 | 188 | 0.0 | 1.0 | 0.00 | 0.00 | 0.00 | 56 | 1017.0 |
| 20260505210011 | 77 | 156 | 0.0 | 4.0 | 0.00 | 0.00 | 0.00 | 56 | 1016.9 |
| 20260505205507 | 77 | 178 | 0.0 | 4.0 | 0.00 | 0.00 | 0.00 | 55 | 1016.8 |
| 20260505205006 | 77 | 212 | 0.0 | 3.0 | 0.00 | 0.00 | 0.00 | 56 | 1016.9 |
| 20260505204523 | 77 | 167 | 0.0 | 3.0 | 0.00 | 0.00 | 0.00 | 55 | 1016.9 |
| 20260505204007 | 77 | 132 | 0.0 | 4.0 | 0.00 | 0.00 | 0.00 | 55 | 1016.9 |
| 20260505203510 | 78 | 153 | 0.0 | 4.0 | 0.00 | 0.00 | 0.00 | 55 | 1016.9 |
| 20260505203017 | 78 | 236 | 0.0 | 3.0 | 0.00 | 0.00 | 0.00 | 54 | 1016.8 |
| 20260505202507 | 78 | 136 | 0.0 | 3.0 | 0.00 | 0.00 | 0.00 | 54 | 1017.0 |
| 20260505202009 | 78 | 157 | 0.0 | 4.0 | 0.00 | 0.00 | 0.00 | 54 | 1017.0 |
| 20260505201505 | 78 | 213 | 0.0 | 4.0 | 0.00 | 0.00 | 0.00 | 53 | 1017.0 |
| 20260505201004 | 78 | 182 | 1.0 | 4.0 | 0.00 | 0.00 | 0.00 | 54 | 1017.0 |
| 20260505200503 | 78 | 195 | 0.0 | 4.0 | 0.00 | 0.00 | 0.00 | 53 | 1017.2 |
| 20260505200012 | 78 | 195 | 0.0 | 3.0 | 0.00 | 0.00 | 0.00 | 53 | 1017.2 |
| 20260505195505 | 79 | 129 | 0.0 | 3.0 | 0.00 | 0.00 | 0.00 | 51 | 1017.3 |
| 20260505195005 | 79 | 167 | 0.0 | 2.0 | 0.00 | 0.00 | 0.00 | 52 | 1017.4 |
| 20260505194510 | 79 | 201 | 0.0 | 2.0 | 0.00 | 0.00 | 0.00 | 52 | 1017.6 |
| 20260505194008 | 79 | 103 | 0.0 | 4.0 | 0.00 | 0.00 | 0.00 | 52 | 1017.6 |
| 20260505193507 | 79 | 76 | 0.0 | 4.0 | 0.00 | 0.00 | 0.00 | 50 | 1017.7 |
| 20260505193015 | 79 | 208 | 0.0 | 2.0 | 0.00 | 0.00 | 0.00 | 51 | 1018.0 |
| 20260505192512 | 79 | 104 | 0.0 | 2.0 | 0.00 | 0.00 | 0.00 | 52 | 1017.9 |
| 20260505192008 | 79 | 127 | 0.0 | 3.0 | 0.00 | 0.00 | 0.00 | 52 | 1018.1 |
| 20260505191521 | 79 | 163 | 0.0 | 4.0 | 0.00 | 0.00 | 0.00 | 51 | 1018.1 |
| 20260505191011 | 79 | 190 | 1.0 | 4.0 | 0.00 | 0.00 | 0.00 | 52 | 1018.1 |
| 20260505190508 | 79 | 180 | 1.0 | 4.0 | 0.00 | 0.00 | 0.00 | 51 | 1018.2 |
| 20260505190005 | 79 | 202 | 1.0 | 4.0 | 0.00 | 0.00 | 0.00 | 52 | 1018.3 |
| 20260505185504 | 79 | 198 | 0.0 | 4.0 | 0.00 | 0.00 | 0.00 | 52 | 1018.2 |
| 20260505185005 | 79 | 195 | 1.0 | 8.0 | 0.00 | 0.00 | 0.00 | 51 | 1018.2 |
| 20260505184517 | 79 | 98 | 1.0 | 8.0 | 0.00 | 0.00 | 0.00 | 50 | 1018.2 |
| 20260505184007 | 80 | 178 | 0.0 | 3.0 | 0.00 | 0.00 | 0.00 | 48 | 1018.1 |
| 20260505183507 | 80 | 188 | 0.0 | 3.0 | 0.00 | 0.00 | 0.00 | 50 | 1018.1 |
| 20260505183040 | 80 | 211 | 0.0 | 3.0 | 0.00 | 0.00 | 0.00 | 51 | 1018.0 |
| 20260505182507 | 80 | 121 | 0.0 | 3.0 | 0.00 | 0.00 | 0.00 | 50 | 1017.8 |
| 20260505182014 | 80 | 123 | 0.0 | 3.0 | 0.00 | 0.00 | 0.00 | 50 | 1017.8 |
| 20260505181518 | 80 | 259 | 0.0 | 6.0 | 0.00 | 0.00 | 0.00 | 49 | 1017.9 |
| 20260505181012 | 79 | 113 | 1.0 | 6.0 | 0.00 | 0.00 | 0.00 | 52 | 1018.0 |
| 20260505180509 | 79 | 98 | 1.0 | 3.0 | 0.00 | 0.00 | 0.00 | 52 | 1017.9 |
| 20260505180022 | 79 | 126 | 0.0 | 3.0 | 0.00 | 0.00 | 0.00 | 54 | 1017.9 |
| 20260505175512 | 79 | 207 | 0.0 | 3.0 | 0.00 | 0.00 | 0.00 | 51 | 1017.9 |
| 20260505175010 | 79 | 146 | 0.0 | 4.0 | 0.00 | 0.00 | 0.00 | 54 | 1017.9 |
| 20260505174505 | 79 | 262 | 1.0 | 4.0 | 0.00 | 0.00 | 0.00 | 51 | 1017.9 |
| 20260505174007 | 79 | 176 | 1.0 | 4.0 | 0.00 | 0.00 | 0.00 | 52 | 1017.6 |
| 20260505173504 | 79 | 282 | 1.0 | 4.0 | 0.00 | 0.00 | 0.00 | 52 | 1017.7 |
| 20260505173020 | 80 | 237 | 0.0 | 3.0 | 0.00 | 0.00 | 0.00 | 51 | 1017.9 |
| 20260505172505 | 79 | 246 | 0.0 | 3.0 | 0.00 | 0.00 | 0.00 | 53 | 1018.0 |
| 20260505172007 | 78 | 202 | 0.0 | 4.0 | 0.00 | 0.00 | 0.00 | 54 | 1018.3 |
| 20260505171514 | 78 | 117 | 0.0 | 4.0 | 0.00 | 0.00 | 0.00 | 53 | 1018.4 |
| 20260505171008 | 78 | 240 | 2.0 | 5.0 | 0.00 | 0.00 | 0.00 | 51 | 1018.3 |
| 20260505170506 | 78 | 188 | 0.0 | 5.0 | 0.00 | 0.00 | 0.00 | 54 | 1018.4 |
| 20260505170020 | 78 | 97 | 0.0 | 6.0 | 0.00 | 0.00 | 0.00 | 54 | 1018.5 |
| 20260505165508 | 78 | 170 | 0.0 | 6.0 | 0.00 | 0.00 | 0.00 | 54 | 1018.5 |
| 20260505165008 | 78 | 242 | 0.0 | 5.0 | 0.00 | 0.00 | 0.00 | 55 | 1018.6 |
| 20260505164524 | 78 | 290 | 0.0 | 3.0 | 0.00 | 0.00 | 0.00 | 54 | 1018.6 |
| 20260505164006 | 79 | 192 | 1.0 | 3.0 | 0.00 | 0.00 | 0.00 | 53 | 1018.6 |
| 20260505163511 | 79 | 219 | 0.0 | 4.0 | 0.00 | 0.00 | 0.00 | 55 | 1018.7 |
| 20260505163008 | 79 | 162 | 0.0 | 4.0 | 0.00 | 0.00 | 0.00 | 53 | 1018.6 |
| 20260505162504 | 79 | 186 | 0.0 | 3.0 | 0.00 | 0.00 | 0.00 | 54 | 1018.7 |
| 20260505162005 | 79 | 186 | 0.0 | 4.0 | 0.00 | 0.00 | 0.00 | 55 | 1018.7 |
| 20260505161514 | 78 | 130 | 0.0 | 4.0 | 0.00 | 0.00 | 0.00 | 55 | 1018.7 |
| 20260505161004 | 78 | 188 | 1.0 | 4.0 | 0.00 | 0.00 | 0.00 | 55 | 1018.8 |
| 20260505160508 | 79 | 194 | 0.0 | 2.0 | 0.00 | 0.00 | 0.00 | 55 | 1018.9 |
| 20260505153027 | 77 | 204 | 1.0 | 3.0 | 0.00 | 0.00 | 0.00 | 50 | 1018.7 |
| 20260505152514 | 77 | 216 | 0.0 | 2.0 | 0.00 | 0.00 | 0.00 | 54 | 1018.7 |
| 20260505152014 | 76 | 255 | 0.0 | 2.0 | 0.00 | 0.00 | 0.00 | 54 | 1018.7 |
| 20260505151510 | 75 | 77 | 0.0 | 2.0 | 0.00 | 0.00 | 0.00 | 57 | 1018.6 |
| 20260505151006 | 74 | 160 | 0.0 | 2.0 | 0.00 | 0.00 | 0.00 | 56 | 1018.6 |
| 20260505150511 | 74 | 111 | 0.0 | 2.0 | 0.00 | 0.00 | 0.00 | 57 | 1018.6 |
| 20260505140517 | 74 | 133 | 0.0 | 2.0 | 0.00 | 0.00 | 0.00 | 59 | 1018.3 |